OBJECT C

基本信息
目录编号:
56155
目录名称:
OBJECT C
国际标识:
2023-047C
轨道中心:
EARTH
物体状态:
在轨
发射日期:
2023-03-30 UTC
国别:
中国 (CN)
轨道信息
数据来源: 国际轨道数据
星历时间: 2026-09-09T20:54:51+0800
半长轴: 6901.278km
偏心率: 0.0001873
轨道倾角: 97.502°
近地点辐角: 87.187°
升交点赤经: 78.462°
平近点角: 272.958°
近地点: 521.848km
远地点: 524.434km
周期: 95.094分钟
每日圈数: 15.142883
详细信息
发射场:
TSC
轨道高度:
LEO
数据来源:
AOE Working Group
参考系:
TEME
时间系统:
UTC
历元类型:
SGP4
2D轨道图
3D轨道图
轨道高度分析图
轨道倾角分析图
轨道综合分析图
查看轨道综合分析图